Regional Weather Roundup
Issued by NWS Columbia, SC

Home | Current Version | Previous Version | Text Only | Print | Product List | Glossary On
Versions: 1 2 3 4 5 6 7 8 9 10 11 12 13 14 15 16 17 18 19 20 21 22 23 24 25 26 27
000
ASUS42 KCAE 061710
RWRCAE
REGIONAL WEATHER ROUNDUP
NATIONAL WEATHER SERVICE COLUMBIA SC
100 PM EDT FRI MAY 06 2016

NOTE: "FAIR" INDICATES FEW OR NO CLOUDS BELOW 12,000 FEET WITH NO
SIGNIFICANT WEATHER AND/OR OBSTRUCTIONS TO VISIBILITY.

NOT ALL STATIONS ARE QUALITY CONTROLLED BY THE NATIONAL
WEATHER SERVICE. USE DATA WITH CAUTION...ESPECIALLY
DEWPOINT OBSERVATIONS.

SCZ001>056-GAZ040-063>065-077-061800-
...UPSTATE SOUTH CAROLINA...

CITY           SKY/WX    TMP DP  RH WIND       PRES   REMARKS
ANDERSON       MOSUNNY   69  39  33 NW7       29.86F
LIBERTY        PTSUNNY   67  39  35 NW5       29.86S
SPARTANBURG    MOSUNNY   66  39  37 N12G17    29.85S
CLEMSON        SUNNY     70  37  29 N6        29.88F
GREENVILLE     SUNNY     69  39  33 N17G24    29.86F
GREENWOOD      PTSUNNY   68  42  38 NW10      29.87F
GREER          MOSUNNY   68  40  35 N14G23    29.85S
ROCK HILL      CLOUDY    66  45  46 N9        29.83F
CHESTER        PTSUNNY   64  43  45 NW9       29.84F
LAURENS        PTSUNNY   66  43  42 NW14      29.85S


...CENTRAL SOUTH CAROLINA...

CITY           SKY/WX    TMP DP  RH WIND       PRES   REMARKS
COLUMBIA APT   PTSUNNY   69  45  41 VRB6      29.82F
COLUMBIA OWENS PTSUNNY   70  45  40 NW9       29.83F
MCENTIRE ANGB  PTSUNNY   69  46  44 N10       29.82F
ORANGEBURG     PTSUNNY   69  46  43 W9        29.83F
SUMTER SHAW    MOSUNNY   66  47  49 NW13      29.79F
NEWBERRY       PTSUNNY   66  45  45 NW8       29.87F
AIKEN          FAIR      66  45  45 NW8       29.88F
BARNWELL       FAIR      73  48  40 W7        29.85F
MANNING        FAIR      68  46  45 NW9       29.81S
LANCASTER      PTSUNNY   63  48  59 W8G18     29.83S
WINNSBORO      MOSUNNY   68  45  42 NW13      29.83F


...EASTERN AND COASTAL SOUTH CAROLINA...

CITY           SKY/WX    TMP DP  RH WIND       PRES   REMARKS
MYRTLE BEACH   PTSUNNY   66  45  45 NW12      29.80F
N MYRTLE BCH   PTSUNNY   66  49  54 NW9       29.77F
CONWAY         PTSUNNY   63  50  63 N6        29.79S
MARION         PTSUNNY   63  48  59 NW8G16    29.79S
HARTSVILLE     PTSUNNY   63  43  48 NW3       29.79F
FLORENCE       CLOUDY    67  48  50 NW10      29.79F
DARLINGTON     PTSUNNY   65  49  56 NW8       29.80S
CHARLESTON APT PTSUNNY   69  46  43 NW8G20    29.82S
MOUNT PLEASANT FAIR      68  48  49 NW15      29.82S
WALTERBORO     PTSUNNY   72  45  37 W9G17     29.83F
BEAUFORT       MOSUNNY   69  47  45 VRB7      29.85F


...EASTERN GEORGIA...

CITY           SKY/WX    TMP DP  RH WIND       PRES   REMARKS
AUGUSTA BUSH F SUNNY     70  43  37 VRB3      29.85F
AUGUSTA DANIEL SUNNY     69  41  36 VRB7      29.86F
THOMSON        SUNNY     71  48  44 N6        29.91F
WASHINGTON     FAIR      64  41  42 CALM      29.87F
CLAXTON        FAIR      69  47  46 W7G21     29.88F
SYLVANIA       MOSUNNY   70  48  45 NW5       29.86F
STATESBORO     MOSUNNY   72  49  45 CALM      29.86F
SAVANNAH       MOSUNNY   69  43  38 VRB7G18   29.86F


...SOUTHERN NORTH CAROLINA...

CITY           SKY/WX    TMP DP  RH WIND       PRES   REMARKS
CHARLOTTE      PTSUNNY   65  44  46 NW12G22   29.82F
MONROE         CLOUDY    65  44  46 W8        29.80F
WADESBORO      CLOUDY    66  44  44 NW5       29.78F
ROCKINGHAM     CLOUDY    64  49  57 NW10      29.78F
RUTHERFORDTON  MOSUNNY   64  40  42 NW16G23   29.86F
ASHEVILLE      LGT RAIN  60  39  45 NW23G33   29.91S

$$




USA.gov is the U.S. government's official web portal to all federal, state and local government web resources and services.